EB5ETD Weather Reports


time (UTC)temp
F
wind
direction
speed
knots
gust
knots
rain 1hr
in
rain 24hr
in
rain mn
in
humidity
%
barometer
mb
20260506214004 54 27 0.0 0.9 0.00 0.09 0.09 89 1021.0
20260506213504 54 27 0.0 0.9 0.00 0.09 0.09 89 1021.1
20260506212003 54 28 0.0 0.9 0.00 0.09 0.09 89 1020.9
20260506211503 54 28 0.9 0.9 0.00 0.09 0.09 89 1021.0
20260506211005 54 28 0.0 1.7 0.00 0.09 0.09 89 1020.9
20260506210504 54 28 0.0 0.9 0.00 0.09 0.09 90 1021.1
20260506204504 55 28 0.0 0.9 0.00 0.09 0.09 89 1020.5
20260506204004 55 28 0.0 0.9 0.00 0.09 0.09 89 1020.2
20260506203504 55 28 0.0 0.9 0.00 0.09 0.09 88 1020.1
20260506203004 55 28 0.0 0.9 0.00 0.09 0.09 88 1020.1
20260506202504 56 28 0.9 0.9 0.00 0.09 0.09 88 1019.9
20260506202004 55 28 0.9 0.9 0.00 0.09 0.09 88 1020.0
20260506201504 55 28 0.0 0.0 0.00 0.09 0.09 88 1019.8
20260506201004 55 28 0.9 1.7 0.00 0.09 0.09 88 1019.6
20260506200504 55 28 0.0 0.9 0.00 0.09 0.09 88 1019.6
20260506200004 55 28 0.0 0.0 0.00 0.09 0.09 88 1019.5
20260506195503 56 28 0.0 0.0 0.00 0.09 0.09 88 1019.6
20260506195003 56 28 0.0 0.9 0.00 0.09 0.09 88 1019.4
20260506194004 56 28 0.0 1.7 0.00 0.09 0.09 87 1019.3
20260506193504 56 28 0.0 1.7 0.00 0.09 0.09 86 1019.1
20260506192504 57 28 0.9 0.9 0.00 0.09 0.09 86 1019.1
20260506192004 57 28 0.9 2.6 0.00 0.09 0.09 85 1019.0
20260506191504 57 41 0.9 1.7 0.00 0.09 0.09 85 1019.2
20260506191004 57 49 0.9 2.6 0.00 0.09 0.09 85 1019.0
20260506190504 58 58 1.7 2.6 0.00 0.09 0.09 84 1018.9
20260506190003 58 52 1.7 4.3 0.00 0.09 0.09 83 1018.8
20260506185503 58 51 2.6 5.2 0.00 0.09 0.09 83 1018.7
20260506185004 58 38 2.6 5.2 0.00 0.09 0.09 83 1018.7
20260506184004 58 37 1.7 4.3 0.00 0.09 0.09 82 1018.7
20260506183503 59 50 2.6 4.3 0.00 0.09 0.09 81 1018.4
20260506183005 59 44 1.7 2.6 0.00 0.09 0.09 81 1018.3
20260506182504 59 29 1.7 4.3 0.00 0.09 0.09 81 1018.3
20260506181504 59 49 2.6 4.3 0.00 0.09 0.09 81 1018.4
20260506181004 59 50 2.6 5.2 0.00 0.09 0.09 80 1018.2
20260506180503 60 32 2.6 6.1 0.00 0.09 0.09 80 1018.2
20260506180005 60 43 2.6 5.2 0.00 0.09 0.09 79 1018.1
20260506175504 60 51 2.6 4.3 0.00 0.09 0.09 78 1017.9
20260506175004 61 40 2.6 6.1 0.00 0.09 0.09 77 1017.9
20260506174503 61 48 2.6 6.1 0.00 0.09 0.09 76 1018.0
20260506174004 61 48 1.7 2.6 0.00 0.09 0.09 76 1018.0
20260506173503 61 42 1.7 2.6 0.00 0.09 0.09 76 1018.0
20260506173004 61 37 0.0 2.6 0.00 0.09 0.09 76 1018.0
20260506172504 61 38 1.7 4.3 0.00 0.09 0.09 76 1017.9
20260506172004 61 42 2.6 5.2 0.00 0.09 0.09 76 1018.0
20260506171504 62 51 2.6 4.3 0.00 0.09 0.09 76 1018.0
20260506171003 62 48 2.6 4.3 0.00 0.09 0.09 74 1017.9
20260506170504 62 33 0.9 2.6 0.00 0.09 0.09 71 1018.0
20260506170004 62 46 1.7 2.6 0.00 0.09 0.09 71 1017.8
20260506165503 62 43 1.7 4.3 0.00 0.09 0.09 70 1018.0
20260506164503 61 70 0.9 2.6 0.00 0.09 0.09 69 1017.9
20260506164004 62 59 1.7 7.0 0.00 0.09 0.09 70 1017.9
20260506163004 61 85 1.7 5.2 0.00 0.09 0.09 71 1018.0
20260506162504 61 38 1.7 5.2 0.00 0.09 0.09 72 1018.1
20260506162003 61 38 0.9 5.2 0.00 0.09 0.09 72 1017.8
20260506161504 62 45 1.7 5.2 0.00 0.09 0.09 71 1017.8
20260506161004 62 32 1.7 2.6 0.00 0.09 0.09 69 1017.8
20260506160503 62 51 1.7 2.6 0.00 0.09 0.09 68 1017.7
20260506160004 61 54 1.7 5.2 0.00 0.09 0.09 68 1018.0
20260506155004 61 57 2.6 6.1 0.00 0.09 0.09 74 1018.0
20260506154503 62 60 3.5 5.2 0.00 0.09 0.09 73 1017.7
20260506154004 61 236 0.9 5.2 0.00 0.09 0.09 71 1017.7
20260506153504 61 212 2.6 4.3 0.00 0.09 0.09 71 1017.8
20260506153004 61 222 1.7 2.6 0.00 0.09 0.09 70 1017.8
20260506152504 61 251 0.9 1.7 0.00 0.09 0.09 69 1018.0
20260506152004 62 258 0.9 1.7 0.00 0.09 0.09 70 1017.8
20260506151503 62 231 0.0 2.6 0.00 0.09 0.09 70 1018.2
20260506151004 62 243 0.9 2.6 0.00 0.09 0.09 70 1018.0
20260506150504 62 56 1.7 4.3 0.00 0.09 0.09 69 1017.9
20260506150004 63 255 0.0 1.7 0.00 0.09 0.09 68 1017.7
20260506145504 63 46 0.9 2.6 0.00 0.09 0.09 68 1017.9
20260506145004 62 250 0.0 2.6 0.00 0.09 0.09 72 1017.8
20260506144503 61 349 1.7 5.2 0.00 0.09 0.09 73 1018.3
20260506144004 60 294 0.9 2.6 0.00 0.09 0.09 75 1018.3
20260506143004 59 50 2.6 5.2 0.00 0.09 0.09 76 1018.7
20260506142004 59 33 1.7 4.3 0.00 0.09 0.09 77 1018.9
20260506141503 59 48 1.7 4.3 0.00 0.09 0.09 78 1019.1
20260506141004 58 48 2.6 7.0 0.01 0.09 0.09 78 1019.0
20260506140504 59 74 0.9 2.6 0.03 0.09 0.09 80 1019.1
20260506140004 58 57 0.9 5.2 0.04 0.09 0.09 83 1019.2
20260506135504 56 17 2.6 5.2 0.06 0.09 0.09 86 1019.5
20260506135004 57 49 1.7 5.2 0.09 0.09 0.09 89 1019.5
20260506134504 57 39 2.6 6.1 0.09 0.09 0.09 90 1019.6
20260506134003 56 93 0.9 4.3 0.09 0.09 0.09 90 1019.6
20260506133504 56 47 1.7 4.3 0.09 0.09 0.09 91 1019.6
20260506133004 56 49 2.6 5.2 0.09 0.09 0.09 90 1019.8
20260506132004 56 56 1.7 4.3 0.09 0.09 0.09 89 1019.6
20260506131504 56 49 1.7 4.3 0.09 0.09 0.09 88 1020.0
20260506131003 56 44 1.7 4.3 0.08 0.08 0.08 87 1019.9
20260506130503 57 59 1.7 4.3 0.06 0.06 0.06 85 1019.8
20260506125504 58 40 2.6 5.2 0.03 0.03 0.03 79 1019.7
20260506125004 59 52 3.5 7.8 0.00 0.00 0.00 76 1019.5
20260506124004 61 41 5.2 11.3 0.00 0.00 0.00 69 1018.7
20260506123004 63 34 4.3 8.7 0.00 0.00 0.00 68 1018.5
20260506122504 63 39 5.2 11.3 0.00 0.00 0.00 67 1018.5
20260506121504 64 40 4.3 10.4 0.00 0.00 0.00 64 1018.3
20260506121004 64 25 4.3 8.7 0.00 0.00 0.00 65 1018.3
20260506120504 63 55 2.6 6.1 0.00 0.00 0.00 66 1018.5
20260506115504 63 30 1.7 5.2 0.00 0.00 0.00 66 1018.5
20260506115004 64 42 2.6 5.2 0.00 0.00 0.00 64 1018.4
20260506114504 64 28 1.7 5.2 0.00 0.00 0.00 64 1018.5
20260506114005 64 112 1.7 2.6 0.00 0.00 0.00 62 1018.5
20260506113504 64 38 1.7 6.1 0.00 0.00 0.00 64 1018.7
20260506113004 64 65 2.6 7.8 0.00 0.00 0.00 64 1018.5
20260506112504 65 37 2.6 5.2 0.00 0.00 0.00 62 1018.6
20260506111504 63 48 2.6 5.2 0.00 0.00 0.00 65 1018.9
20260506111004 62 69 2.6 5.2 0.00 0.00 0.00 67 1019.2
20260506110504 62 38 3.5 7.0 0.00 0.00 0.00 66 1019.2
20260506110005 62 41 1.7 7.8 0.00 0.00 0.00 66 1019.2
20260506105504 62 40 2.6 6.1 0.00 0.00 0.00 67 1019.2
20260506105004 62 45 1.7 5.2 0.00 0.00 0.00 67 1019.0
20260506104504 62 36 4.3 7.0 0.00 0.00 0.00 67 1019.2
20260506102504 63 69 4.3 7.0 0.00 0.00 0.00 65 1019.0
20260506102005 65 66 0.9 4.3 0.00 0.00 0.00 62 1018.8
20260506101504 63 48 2.6 7.0 0.00 0.00 0.00 65 1019.1
20260506101004 62 29 2.6 4.3 0.00 0.00 0.00 67 1019.2
20260506100504 62 58 4.3 7.0 0.00 0.00 0.00 68 1019.4
20260506100004 62 50 5.2 7.8 0.00 0.00 0.00 69 1019.4
20260506095503 60 30 3.5 7.0 0.00 0.00 0.00 72 1019.9
20260506094504 60 45 2.6 7.8 0.00 0.00 0.00 71 1019.8
20260506094004 61 45 4.3 7.8 0.00 0.00 0.00 69 1019.7
20260506093503 60 37 2.6 6.1 0.00 0.00 0.00 72 1019.8
20260506093004 60 28 2.6 7.0 0.00 0.00 0.00 73 1019.9
20260506092504 60 39 2.6 7.8 0.00 0.00 0.00 72 1019.8
20260506091504 60 39 1.7 7.0 0.00 0.00 0.00 73 1019.6
20260506091004 60 25 2.6 7.0 0.00 0.00 0.00 74 1019.6
20260506090505 60 51 3.5 7.0 0.00 0.00 0.00 74 1019.4
20260506090004 60 48 4.3 7.0 0.00 0.00 0.00 74 1019.6
20260506085504 59 24 2.6 8.7 0.00 0.00 0.00 75 1019.6
20260506084504 60 34 1.7 7.0 0.00 0.00 0.00 75 1019.4
20260506083504 58 44 3.5 7.0 0.00 0.00 0.00 78 1019.6
20260506083004 59 47 4.3 7.0 0.00 0.00 0.00 76 1019.7
20260506082503 59 47 5.2 7.8 0.00 0.00 0.00 78 1019.6
20260506082003 59 42 2.6 7.8 0.00 0.00 0.00 78 1019.5
20260506081503 58 22 2.6 5.2 0.00 0.00 0.00 80 1019.6
20260506081004 59 48 4.3 7.0 0.00 0.00 0.00 79 1019.5
20260506080506 58 39 4.3 7.8 0.00 0.00 0.00 81 1019.6
20260506073504 58 60 1.7 5.2 0.00 0.00 0.00 83 1019.5
20260506073004 58 33 0.9 1.7 0.00 0.00 0.00 82 1019.7
20260506072504 58 57 0.9 4.3 0.00 0.00 0.00 82 1019.5
20260506071504 58 45 1.7 6.1 0.00 0.00 0.00 84 1019.6
20260506071004 58 71 1.7 5.2 0.00 0.00 0.00 84 1019.8
20260506070503 57 74 2.6 5.2 0.00 0.00 0.00 84 1019.6
20260506062003 56 75 0.9 1.7 0.00 0.00 0.00 85 1020.1
20260506061504 55 56 0.9 2.6 0.00 0.00 0.00 86 1020.2
20260506061004 55 257 0.0 0.9 0.00 0.00 0.00 86 1020.2
20260506060504 54 257 0.0 0.9 0.00 0.00 0.00 86 1020.2
20260506051004 53 257 0.0 0.9 0.00 0.00 0.00 86 1020.0
20260506050505 53 257 0.0 0.9 0.00 0.00 0.00 86 1020.1
20260506045004 53 257 0.0 0.0 0.00 0.00 0.00 85 1019.9
20260506044004 53 257 0.0 0.9 0.00 0.00 0.00 85 1019.9
20260506043504 53 257 0.9 0.9 0.00 0.00 0.00 85 1020.0
20260506043004 53 257 0.0 0.9 0.00 0.00 0.00 86 1020.0
20260506042504 53 257 0.0 0.9 0.00 0.00 0.00 87 1019.9
20260506042004 53 257 0.0 0.0 0.00 0.00 0.00 87 1019.8
20260506041504 53 257 0.0 0.0 0.00 0.00 0.00 87 1019.9
20260506040503 52 257 0.0 0.0 0.00 0.00 0.00 86 1019.9
20260506040004 52 257 0.0 0.0 0.00 0.00 0.00 86 1019.9
20260506035504 52 257 0.0 0.9 0.00 0.00 0.00 86 1020.0
20260506035004 52 257 0.0 0.9 0.00 0.00 0.00 86 1020.1
20260506034504 52 257 0.0 1.7 0.00 0.00 0.00 86 1020.2
20260506034003 51 257 0.0 0.0 0.00 0.00 0.00 85 1020.2
20260506033504 51 257 0.9 0.9 0.00 0.00 0.00 85 1020.5
20260506032003 52 258 0.0 0.9 0.00 0.00 0.00 86 1020.2
20260506031504 52 262 0.9 1.7 0.00 0.00 0.00 86 1020.1
20260506031003 52 262 0.9 0.9 0.00 0.00 0.00 86 1020.3
20260506030504 51 347 0.9 2.6 0.00 0.00 0.00 86 1020.2
20260506025504 52 240 0.0 0.9 0.00 0.00 0.00 86 1020.4
20260506024504 52 246 0.9 1.7 0.00 0.00 0.00 85 1020.4
20260506024004 52 231 0.0 2.6 0.00 0.00 0.00 85 1020.3
20260506023503 51 244 0.9 1.7 0.00 0.00 0.00 86 1020.3
20260506023004 51 283 0.9 1.7 0.00 0.00 0.00 86 1020.3
20260506022503 52 235 0.9 0.9 0.00 0.00 0.00 86 1020.5
20260506022004 52 196 0.9 1.7 0.00 0.00 0.00 86 1020.4
20260506021003 52 191 0.0 0.9 0.00 0.00 0.00 85 1020.3
20260506020504 52 189 0.0 0.0 0.00 0.00 0.00 84 1020.3
20260506020004 53 189 0.0 0.9 0.00 0.00 0.00 84 1020.3
20260506015504 53 193 0.0 0.9 0.00 0.00 0.00 83 1020.3
20260506015004 53 195 0.0 0.9 0.00 0.00 0.00 83 1020.1
20260506014503 53 232 0.0 1.7 0.00 0.00 0.00 84 1020.1
20260506014004 54 224 0.0 0.9 0.00 0.00 0.00 84 1020.2
20260506013503 54 243 0.0 1.7 0.00 0.00 0.00 84 1020.2
20260506013004 54 203 0.9 1.7 0.00 0.00 0.00 84 1020.2
20260506012503 54 24 0.9 1.7 0.00 0.00 0.00 85 1020.4
20260506012004 53 13 0.0 0.9 0.00 0.00 0.00 85 1020.3
20260506011505 53 12 0.0 0.0 0.00 0.00 0.00 85 1020.4
20260506011004 53 12 0.0 0.0 0.00 0.00 0.00 85 1020.4
20260506010504 53 12 0.0 0.0 0.00 0.00 0.00 85 1020.5
20260506005504 53 12 0.9 0.9 0.00 0.00 0.00 84 1020.4
20260506004504 54 256 0.0 0.9 0.00 0.00 0.00 82 1020.4
20260506004004 54 256 0.0 0.9 0.00 0.00 0.00 81 1020.3
20260506003503 54 256 0.0 0.9 0.00 0.00 0.00 80 1020.2
20260506003004 54 255 0.0 0.9 0.00 0.00 0.00 79 1020.5
20260506002504 54 254 0.0 0.9 0.00 0.00 0.00 79 1020.5
20260506002004 54 22 0.0 0.9 0.00 0.00 0.00 78 1020.5
20260506001504 54 28 0.0 0.9 0.00 0.00 0.00 77 1020.4
20260506000504 55 40 0.9 1.7 0.00 0.00 0.00 76 1020.7
20260506000004 55 44 0.0 1.7 0.00 0.00 0.00 75 1020.5
20260505235504 55 253 0.9 0.9 0.00 0.00 0.00 75 1020.5
20260505235004 55 252 0.0 0.9 0.00 0.00 0.00 75 1020.5
20260505234503 55 252 0.0 0.9 0.00 0.00 0.00 74 1020.7
20260505234004 56 235 0.9 1.7 0.00 0.00 0.00 74 1020.3
20260505233003 55 208 0.0 0.9 0.00 0.00 0.00 71 1020.5
20260505232504 55 208 0.0 1.7 0.00 0.00 0.00 70 1020.5
20260505232003 56 233 0.9 1.7 0.00 0.00 0.00 69 1020.3
20260505231505 56 188 0.9 2.6 0.00 0.00 0.00 68 1020.0
20260505231004 56 226 0.9 1.7 0.00 0.00 0.00 68 1020.1
20260505230504 56 235 0.0 0.9 0.00 0.00 0.00 68 1020.0
20260505230004 57 235 0.0 1.7 0.00 0.00 0.00 67 1020.1
20260505225004 57 220 1.7 2.6 0.00 0.00 0.00 65 1019.8
20260505224004 58 46 1.7 2.6 0.00 0.00 0.00 65 1019.8
20260505223504 58 58 0.0 4.3 0.00 0.00 0.00 64 1019.8
20260505223003 57 84 1.7 2.6 0.00 0.00 0.00 66 1019.9
20260505222504 58 41 2.6 5.2 0.00 0.00 0.00 65 1019.9
20260505222004 58 54 1.7 4.3 0.00 0.00 0.00 65 1019.4
20260505221003 57 227 1.7 2.6 0.00 0.00 0.00 63 1019.8
20260505220504 57 212 0.0 0.9 0.00 0.00 0.00 67 1019.5
20260505220004 57 212 0.9 1.7 0.00 0.00 0.00 67 1019.6
20260505215503 57 204 0.9 1.7 0.00 0.00 0.00 66 1019.7
20260505215004 58 218 0.9 1.7 0.00 0.00 0.00 66 1019.7
20260505214503 58 188 0.9 2.6 0.00 0.00 0.00 66 1019.7